Simultaneous Nadir Overpasses (SNOs) Predictions

Prediction of SNOs between GOES-16 and NOAA-20 Satellite Orbit:

Table of predicted SNOs for the next 14.0 days since TLE Epoch: 7/17/2020
Index Date Time (GOES-16) GOES-16 Lat,Lon NOAA-20 Lat,Lon Distance(km) Time Diff (sec)
1 07/18/2020 06:18:56 -0.01, -75.20 -0.41, -73.49 194.49 23
2 07/19/2020 18:39:09 0.02, -75.21 -0.79, -78.79 408.58 80
3 07/20/2020 18:23:03 0.01, -75.21 0.21, -74.26 108.47 80
4 07/22/2020 06:42:10 -0.02, -75.21 0.96, -79.53 491.93 80
5 07/23/2020 06:23:25 -0.01, -75.22 -0.04, -74.99 25.55 80
6 07/25/2020 18:26:36 0.01, -75.25 -0.11, -75.77 58.99 80
7 07/26/2020 18:10:30 0.00, -75.26 0.89, -71.23 458.92 80
8 07/28/2020 06:29:38 -0.01, -75.28 0.28, -76.50 140.28 80
9 07/29/2020 06:13:33 -0.01, -75.29 -0.78, -71.98 377.74 80
10 07/30/2020 18:32:48 0.02, -75.32 -0.42, -77.28 223.71 80
11 07/31/2020 18:16:43 0.01, -75.33 0.58, -72.74 294.63 80
